Time,TemperatureF,DewpointF,PressureIn,WindDirection,WindDirectionDegrees,WindSpeedMPH,WindSpeedGustMPH,Humidity,HourlyPrecipIn,Conditions,Clouds,dailyrainin,SoftwareType,DateUTC
2013-03-07 00:00:00,34.3,25.8,30.22,NNE,23,0.8,2.9,71,0.00,,,0.00,WUHU216HW,2013-03-07 05:00:00,
2013-03-07 00:01:00,34.3,25.8,30.22,NNE,23,0.0,2.9,71,0.00,,,0.00,WUHU216HW,2013-03-07 05:01:00,
2013-03-07 00:06:00,34.3,25.5,30.21,East,90,1.5,4.4,70,0.00,,,0.00,WUHU216HW,2013-03-07 05:06:00,
2013-03-07 00:11:00,34.3,25.5,30.21,North,0,0.0,4.4,70,0.00,,,0.00,WUHU216HW,2013-03-07 05:11:00,
2013-03-07 00:16:00,34.3,25.5,30.21,NNE,23,0.0,5.3,70,0.00,,,0.00,WUHU216HW,2013-03-07 05:16:00,
2013-03-07 00:21:00,34.3,25.5,30.21,North,0,5.8,5.8,70,0.00,,,0.00,WUHU216HW,2013-03-07 05:21:00,
2013-03-07 00:26:00,34.3,25.5,30.21,North,0,1.7,5.8,70,0.00,,,0.00,WUHU216HW,2013-03-07 05:26:00,
2013-03-07 00:31:00,34.3,25.5,30.21,North,0,3.3,5.5,70,0.00,,,0.00,WUHU216HW,2013-03-07 05:31:00,
2013-03-07 00:36:00,34.3,25.5,30.22,NNW,338,2.6,5.5,70,0.00,,,0.00,WUHU216HW,2013-03-07 05:36:00,
2013-03-07 00:41:00,34.3,25.5,30.21,North,0,1.1,3.5,70,0.00,,,0.00,WUHU216HW,2013-03-07 05:41:00,
2013-03-07 00:46:00,34.3,25.5,30.21,North,0,3.5,3.5,70,0.00,,,0.00,WUHU216HW,2013-03-07 05:46:00,
2013-03-07 00:51:00,34.3,25.5,30.21,North,0,0.8,3.5,70,0.00,,,0.00,WUHU216HW,2013-03-07 05:51:00,
2013-03-07 00:56:00,34.3,25.5,30.21,NNE,23,2.2,2.6,70,0.00,,,0.00,WUHU216HW,2013-03-07 05:56:00,
2013-03-07 01:02:00,34.3,25.5,30.21,North,0,0.8,5.1,70,0.00,,,0.00,WUHU216HW,2013-03-07 06:02:00,
2013-03-07 01:07:00,34.3,25.5,30.21,NW,315,0.0,5.1,70,0.00,,,0.00,WUHU216HW,2013-03-07 06:07:00,
2013-03-07 01:12:00,34.3,25.5,30.22,NNW,338,1.7,3.3,70,0.00,,,0.00,WUHU216HW,2013-03-07 06:12:00,
2013-03-07 01:17:00,34.3,25.5,30.22,North,0,0.0,3.1,70,0.00,,,0.00,WUHU216HW,2013-03-07 06:17:00,
2013-03-07 01:22:00,34.3,25.5,30.22,NNE,23,1.7,3.1,70,0.00,,,0.00,WUHU216HW,2013-03-07 06:22:00,
2013-03-07 01:27:00,34.3,25.5,30.22,North,0,0.0,2.4,70,0.00,,,0.00,WUHU216HW,2013-03-07 06:27:00,
2013-03-07 01:32:00,34.3,25.5,30.22,NE,45,0.0,2.4,70,0.00,,,0.00,WUHU216HW,2013-03-07 06:32:00,
2013-03-07 01:37:00,34.3,25.5,30.22,North,0,2.4,3.3,70,0.00,,,0.00,WUHU216HW,2013-03-07 06:37:00,
2013-03-07 01:42:00,34.3,25.5,30.21,NNE,23,2.9,3.3,70,0.00,,,0.00,WUHU216HW,2013-03-07 06:42:00,
2013-03-07 01:47:00,34.3,25.5,30.21,North,0,1.1,2.9,70,0.00,,,0.00,WUHU216HW,2013-03-07 06:47:00,
2013-03-07 01:52:00,34.3,25.8,30.21,NNE,23,1.7,3.3,71,0.00,,,0.00,WUHU216HW,2013-03-07 06:52:00,
2013-03-07 01:57:00,34.3,25.5,30.21,North,0,0.0,6.7,70,0.00,,,0.00,WUHU216HW,2013-03-07 06:57:00,
2013-03-07 02:02:00,34.1,25.6,30.22,NE,45,0.6,4.0,71,0.00,,,0.00,WUHU216HW,2013-03-07 07:02:00,
2013-03-07 02:07:00,34.1,25.3,30.21,North,0,6.2,6.7,70,0.00,,,0.00,WUHU216HW,2013-03-07 07:07:00,
2013-03-07 02:12:00,34.1,25.3,30.21,North,0,2.0,6.7,70,0.00,,,0.00,WUHU216HW,2013-03-07 07:12:00,
2013-03-07 02:17:00,33.9,25.3,30.22,North,0,0.0,5.8,70,0.00,,,0.00,WUHU216HW,2013-03-07 07:17:00,
2013-03-07 02:23:00,33.9,25.1,30.22,North,0,0.0,4.9,70,0.00,,,0.00,WUHU216HW,2013-03-07 07:23:00,
2013-03-07 02:28:00,33.9,25.4,30.22,North,0,0.0,4.9,71,0.00,,,0.00,WUHU216HW,2013-03-07 07:28:00,
2013-03-07 02:33:00,33.9,25.1,30.23,NNE,23,2.9,3.5,70,0.00,,,0.00,WUHU216HW,2013-03-07 07:33:00,
2013-03-07 02:38:00,33.9,25.4,30.23,NNE,23,5.3,5.3,71,0.00,,,0.00,WUHU216HW,2013-03-07 07:38:00,
2013-03-07 02:43:00,33.8,24.9,30.22,North,0,6.4,6.4,70,0.00,,,0.00,WUHU216HW,2013-03-07 07:43:00,
2013-03-07 02:48:00,33.8,24.9,30.22,NNW,338,2.6,8.9,70,0.00,,,0.00,WUHU216HW,2013-03-07 07:48:00,
2013-03-07 02:53:00,33.8,25.3,30.22,NNW,338,4.2,8.9,71,0.00,,,0.00,WUHU216HW,2013-03-07 07:53:00,
2013-03-07 02:58:00,33.8,25.3,30.23,NNE,23,0.0,4.2,71,0.00,,,0.00,WUHU216HW,2013-03-07 07:58:00,
2013-03-07 03:03:00,33.6,25.1,30.23,NNE,23,0.0,1.7,71,0.00,,,0.00,WUHU216HW,2013-03-07 08:03:00,
2013-03-07 03:08:00,33.6,25.1,30.23,NE,45,0.8,4.2,71,0.00,,,0.00,WUHU216HW,2013-03-07 08:08:00,
2013-03-07 03:13:00,33.6,25.1,30.23,NNE,23,1.7,4.2,71,0.00,,,0.00,WUHU216HW,2013-03-07 08:13:00,
2013-03-07 03:18:00,33.6,25.1,30.24,North,0,0.0,3.5,71,0.00,,,0.00,WUHU216HW,2013-03-07 08:18:00,
2013-03-07 03:23:00,33.6,25.1,30.24,North,0,0.0,3.1,71,0.00,,,0.00,WUHU216HW,2013-03-07 08:23:00,
2013-03-07 03:28:00,33.6,25.1,30.23,North,0,1.7,3.5,71,0.00,,,0.00,WUHU216HW,2013-03-07 08:28:00,
2013-03-07 03:33:00,33.6,25.1,30.23,NNE,23,1.7,3.5,71,0.00,,,0.00,WUHU216HW,2013-03-07 08:33:00,
2013-03-07 03:39:00,33.6,25.1,30.23,NW,315,1.3,5.8,71,0.00,,,0.00,WUHU216HW,2013-03-07 08:39:00,
2013-03-07 03:44:00,33.6,25.1,30.23,NE,45,0.0,5.8,71,0.00,,,0.00,WUHU216HW,2013-03-07 08:44:00,
2013-03-07 03:49:00,33.4,24.9,30.23,East,90,1.7,1.7,71,0.00,,,0.00,WUHU216HW,2013-03-07 08:49:00,
2013-03-07 03:54:00,33.4,24.9,30.23,NE,45,1.3,3.8,71,0.00,,,0.00,WUHU216HW,2013-03-07 08:54:00,
2013-03-07 03:59:00,33.4,25.3,30.23,NW,315,0.0,4.9,72,0.00,,,0.00,WUHU216HW,2013-03-07 08:59:00,
2013-03-07 04:04:00,33.4,25.3,30.23,North,0,2.6,4.9,72,0.00,,,0.00,WUHU216HW,2013-03-07 09:04:00,
2013-03-07 04:09:00,33.4,25.3,30.23,North,0,0.0,2.6,72,0.00,,,0.00,WUHU216HW,2013-03-07 09:09:00,
2013-03-07 04:14:00,33.4,25.3,30.23,North,0,0.0,4.2,72,0.00,,,0.00,WUHU216HW,2013-03-07 09:14:00,
2013-03-07 04:19:00,33.4,25.3,30.23,NNE,23,1.7,4.2,72,0.00,,,0.00,WUHU216HW,2013-03-07 09:19:00,
2013-03-07 04:24:00,33.4,25.6,30.23,NE,45,0.4,3.3,73,0.00,,,0.00,WUHU216HW,2013-03-07 09:24:00,
2013-03-07 04:29:00,33.4,25.6,30.23,NE,45,0.0,3.3,73,0.00,,,0.00,WUHU216HW,2013-03-07 09:29:00,
2013-03-07 04:35:00,33.4,25.6,30.23,NNW,338,1.7,5.1,73,0.00,,,0.00,WUHU216HW,2013-03-07 09:35:00,
2013-03-07 04:40:00,33.4,25.6,30.23,NW,315,0.0,5.1,73,0.00,,,0.00,WUHU216HW,2013-03-07 09:40:00,
2013-03-07 04:45:00,33.4,25.6,30.23,NNE,23,0.0,2.9,73,0.00,,,0.00,WUHU216HW,2013-03-07 09:45:00,
2013-03-07 04:50:00,33.4,25.6,30.23,North,0,2.0,2.9,73,0.00,,,0.00,WUHU216HW,2013-03-07 09:50:00,
2013-03-07 04:55:00,33.4,25.6,30.23,North,0,0.0,2.6,73,0.00,,,0.00,WUHU216HW,2013-03-07 09:55:00,
2013-03-07 05:00:00,33.4,25.6,30.24,North,0,1.3,2.6,73,0.00,,,0.00,WUHU216HW,2013-03-07 10:00:00,
2013-03-07 05:05:00,33.2,25.4,30.24,North,0,0.0,1.7,73,0.00,,,0.00,WUHU216HW,2013-03-07 10:05:00,
2013-03-07 05:10:00,33.4,25.6,30.25,NNW,338,0.0,3.3,73,0.00,,,0.00,WUHU216HW,2013-03-07 10:10:00,
2013-03-07 05:15:00,33.4,25.6,30.25,NNW,338,3.3,3.3,73,0.00,,,0.00,WUHU216HW,2013-03-07 10:15:00,
2013-03-07 05:20:00,33.4,25.6,30.25,NE,45,0.6,3.3,73,0.00,,,0.00,WUHU216HW,2013-03-07 10:20:00,
2013-03-07 05:25:00,33.4,25.7,30.25,NNE,23,1.1,2.9,73,0.00,,,0.00,WUHU216HW,2013-03-07 10:25:00,
2013-03-07 05:30:00,33.6,25.7,30.25,ENE,68,4.2,4.4,73,0.00,,,0.00,WUHU216HW,2013-03-07 10:30:00,
2013-03-07 05:35:00,33.6,25.7,30.24,SE,135,0.0,4.4,73,0.00,,,0.00,WUHU216HW,2013-03-07 10:35:00,
2013-03-07 05:40:00,33.6,25.7,30.25,NNE,23,0.0,5.1,73,0.00,,,0.00,WUHU216HW,2013-03-07 10:40:00,
2013-03-07 05:45:00,33.4,25.6,30.24,NNE,23,2.4,5.1,73,0.00,,,0.00,WUHU216HW,2013-03-07 10:45:00,
2013-03-07 05:51:00,33.6,25.7,30.24,ENE,68,0.0,4.0,73,0.00,,,0.00,WUHU216HW,2013-03-07 10:51:00,
2013-03-07 05:56:00,33.4,25.6,30.25,NNE,23,1.3,4.0,73,0.00,,,0.00,WUHU216HW,2013-03-07 10:56:00,
2013-03-07 06:01:00,33.4,25.6,30.25,North,0,2.4,6.0,73,0.00,,,0.00,WUHU216HW,2013-03-07 11:01:00,
2013-03-07 06:06:00,33.4,25.6,30.25,North,0,1.7,6.0,73,0.00,,,0.00,WUHU216HW,2013-03-07 11:06:00,
2013-03-07 06:11:00,33.4,25.6,30.25,NE,45,0.0,3.5,73,0.00,,,0.00,WUHU216HW,2013-03-07 11:11:00,
2013-03-07 06:16:00,33.4,25.6,30.25,North,0,2.0,4.6,73,0.00,,,0.00,WUHU216HW,2013-03-07 11:16:00,
2013-03-07 06:21:00,33.4,25.6,30.26,NNE,23,3.5,4.6,73,0.00,,,0.00,WUHU216HW,2013-03-07 11:21:00,
2013-03-07 06:26:00,33.4,25.6,30.26,North,0,2.9,6.2,73,0.00,,,0.00,WUHU216HW,2013-03-07 11:26:00,
2013-03-07 06:31:00,33.4,25.6,30.26,NNE,23,0.0,6.2,73,0.00,,,0.00,WUHU216HW,2013-03-07 11:31:00,
2013-03-07 06:36:00,33.2,25.4,30.26,North,0,0.0,2.6,73,0.00,,,0.00,WUHU216HW,2013-03-07 11:36:00,
2013-03-07 06:41:00,33.2,25.4,30.26,NE,45,0.0,6.7,73,0.00,,,0.00,WUHU216HW,2013-03-07 11:41:00,
2013-03-07 06:46:00,33.0,25.3,30.26,North,0,1.7,6.7,73,0.00,,,0.00,WUHU216HW,2013-03-07 11:46:00,
2013-03-07 06:51:00,33.0,25.3,30.26,NNE,23,3.8,4.0,73,0.00,,,0.00,WUHU216HW,2013-03-07 11:51:00,
2013-03-07 06:56:00,33.0,25.3,30.26,NNE,23,2.6,4.0,73,0.00,,,0.00,WUHU216HW,2013-03-07 11:56:00,
2013-03-07 07:01:00,32.9,25.1,30.26,North,0,2.4,4.9,73,0.00,,,0.00,WUHU216HW,2013-03-07 12:01:00,
2013-03-07 07:06:00,32.9,25.1,30.25,North,0,2.9,4.9,73,0.00,,,0.00,WUHU216HW,2013-03-07 12:06:00,
2013-03-07 07:11:00,32.7,24.9,30.25,North,0,1.1,2.9,73,0.00,,,0.00,WUHU216HW,2013-03-07 12:11:00,
2013-03-07 07:16:00,32.7,25.3,30.25,NNE,23,0.0,2.6,74,0.00,,,0.00,WUHU216HW,2013-03-07 12:16:00,
2013-03-07 07:21:00,32.5,25.1,30.26,North,0,1.1,3.5,74,0.00,,,0.00,WUHU216HW,2013-03-07 12:21:00,
2013-03-07 07:27:00,32.7,25.1,30.27,North,0,0.0,3.5,74,0.00,,,0.00,WUHU216HW,2013-03-07 12:27:00,
2013-03-07 07:32:00,32.5,25.1,30.27,North,0,1.5,2.6,74,0.00,,,0.00,WUHU216HW,2013-03-07 12:32:00,
2013-03-07 07:37:00,32.7,25.3,30.27,NNW,338,2.4,3.3,74,0.00,,,0.00,WUHU216HW,2013-03-07 12:37:00,
2013-03-07 07:42:00,32.7,25.3,30.27,NNE,23,0.0,3.3,74,0.00,,,0.00,WUHU216HW,2013-03-07 12:42:00,
2013-03-07 07:47:00,32.7,25.4,30.27,East,90,0.0,1.7,74,0.00,,,0.00,WUHU216HW,2013-03-07 12:47:00,
2013-03-07 07:52:00,32.9,25.6,30.27,NNW,338,0.0,2.9,74,0.00,,,0.00,WUHU216HW,2013-03-07 12:52:00,
2013-03-07 07:57:00,33.0,25.6,30.28,NNE,23,2.9,4.4,74,0.00,,,0.00,WUHU216HW,2013-03-07 12:57:00,
2013-03-07 08:02:00,33.4,25.9,30.27,NNE,23,3.8,4.4,74,0.00,,,0.00,WUHU216HW,2013-03-07 13:02:00,
2013-03-07 08:07:00,33.6,26.1,30.28,North,0,0.8,3.8,74,0.00,,,0.00,WUHU216HW,2013-03-07 13:07:00,
2013-03-07 08:12:00,33.6,26.1,30.28,NNE,23,0.0,3.5,74,0.00,,,0.00,WUHU216HW,2013-03-07 13:12:00,
2013-03-07 08:17:00,33.6,26.1,30.28,NE,45,0.0,3.8,74,0.00,,,0.00,WUHU216HW,2013-03-07 13:17:00,
2013-03-07 08:22:00,33.8,26.2,30.28,NE,45,4.9,4.9,74,0.00,,,0.00,WUHU216HW,2013-03-07 13:22:00,
2013-03-07 08:27:00,34.1,26.3,30.28,NE,45,0.0,4.9,73,0.00,,,0.00,WUHU216HW,2013-03-07 13:27:00,
2013-03-07 08:32:00,34.3,26.4,30.29,NNE,23,3.3,3.5,73,0.00,,,0.00,WUHU216HW,2013-03-07 13:32:00,
2013-03-07 08:37:00,34.3,26.6,30.29,NNE,23,2.4,4.6,73,0.00,,,0.00,WUHU216HW,2013-03-07 13:37:00,
2013-03-07 08:42:00,34.7,26.8,30.29,NNE,23,3.3,4.6,73,0.00,,,0.00,WUHU216HW,2013-03-07 13:42:00,
2013-03-07 08:47:00,35.0,27.2,30.28,ENE,68,0.0,3.8,73,0.00,,,0.00,WUHU216HW,2013-03-07 13:47:00,
2013-03-07 08:53:00,35.4,27.2,30.30,North,0,3.5,6.0,72,0.00,,,0.00,WUHU216HW,2013-03-07 13:53:00,
2013-03-07 08:58:00,35.4,27.2,30.31,ENE,68,0.0,6.0,72,0.00,,,0.00,WUHU216HW,2013-03-07 13:58:00,
2013-03-07 09:03:00,35.7,27.6,30.30,NNE,23,0.8,3.1,72,0.00,,,0.00,WUHU216HW,2013-03-07 14:03:00,
2013-03-07 09:08:00,35.9,27.7,30.31,NNW,338,0.0,1.5,72,0.00,,,0.00,WUHU216HW,2013-03-07 14:08:00,
2013-03-07 09:13:00,36.3,27.8,30.31,NNE,23,0.6,4.6,71,0.00,,,0.00,WUHU216HW,2013-03-07 14:13:00,
2013-03-07 09:18:00,36.6,27.8,30.31,North,0,6.2,6.2,70,0.00,,,0.00,WUHU216HW,2013-03-07 14:18:00,
2013-03-07 09:23:00,36.8,28.0,30.31,NNE,23,3.8,6.2,70,0.00,,,0.00,WUHU216HW,2013-03-07 14:23:00,
2013-03-07 09:28:00,37.0,28.2,30.30,NNE,23,2.0,5.5,70,0.00,,,0.00,WUHU216HW,2013-03-07 14:28:00,
2013-03-07 09:33:00,37.4,28.2,30.30,NE,45,0.0,4.0,69,0.00,,,0.00,WUHU216HW,2013-03-07 14:33:00,
2013-03-07 09:38:00,37.5,28.3,30.31,North,0,3.3,4.0,69,0.00,,,0.00,WUHU216HW,2013-03-07 14:38:00,
2013-03-07 09:43:00,37.7,28.1,30.30,NE,45,0.0,4.2,68,0.00,,,0.00,WUHU216HW,2013-03-07 14:43:00,
2013-03-07 09:48:00,37.9,28.3,30.30,NNE,23,2.0,4.2,68,0.00,,,0.00,WUHU216HW,2013-03-07 14:48:00,
2013-03-07 09:53:00,37.9,28.3,30.30,NNE,23,2.2,7.3,68,0.00,,,0.00,WUHU216HW,2013-03-07 14:53:00,
2013-03-07 09:58:00,37.9,28.3,30.30,East,90,1.3,7.3,68,0.00,,,0.00,WUHU216HW,2013-03-07 14:58:00,
2013-03-07 10:03:00,38.1,28.4,30.30,NE,45,0.0,5.3,68,0.00,,,0.00,WUHU216HW,2013-03-07 15:03:00,
2013-03-07 10:08:00,38.6,28.7,30.30,NE,45,2.6,3.8,67,0.00,,,0.00,WUHU216HW,2013-03-07 15:08:00,
2013-03-07 10:14:00,39.0,28.9,30.30,WNW,293,3.1,5.3,67,0.00,,,0.00,WUHU216HW,2013-03-07 15:14:00,
2013-03-07 10:19:00,39.3,28.8,30.29,NNE,23,2.6,5.1,66,0.00,,,0.00,WUHU216HW,2013-03-07 15:19:00,
2013-03-07 10:24:00,39.3,28.4,30.29,NE,45,0.8,6.2,66,0.00,,,0.00,WUHU216HW,2013-03-07 15:24:00,
2013-03-07 10:29:00,39.7,29.2,30.29,NNE,23,4.2,6.2,66,0.00,,,0.00,WUHU216HW,2013-03-07 15:29:00,
2013-03-07 10:34:00,40.1,29.2,30.28,NNW,338,2.4,4.2,65,0.00,,,0.00,WUHU216HW,2013-03-07 15:34:00,
2013-03-07 10:39:00,40.6,29.7,30.30,ESE,113,0.0,4.2,65,0.00,,,0.00,WUHU216HW,2013-03-07 15:39:00,
2013-03-07 10:44:00,40.6,29.7,30.30,NNE,23,0.0,2.9,65,0.00,,,0.00,WUHU216HW,2013-03-07 15:44:00,
2013-03-07 10:49:00,40.8,29.5,30.28,NNE,23,0.0,4.6,64,0.00,,,0.00,WUHU216HW,2013-03-07 15:49:00,
2013-03-07 10:54:00,41.5,29.8,30.28,NE,45,0.4,4.6,63,0.00,,,0.00,WUHU216HW,2013-03-07 15:54:00,
2013-03-07 10:59:00,42.0,29.9,30.28,East,90,0.0,2.6,62,0.00,,,0.00,WUHU216HW,2013-03-07 15:59:00,
2013-03-07 11:04:00,42.9,30.7,30.29,ESE,113,0.0,4.0,62,0.00,,,0.00,WUHU216HW,2013-03-07 16:04:00,
2013-03-07 11:09:00,43.7,31.2,30.28,North,0,5.8,7.3,61,0.00,,,0.00,WUHU216HW,2013-03-07 16:09:00,
2013-03-07 11:14:00,44.4,31.4,30.28,North,0,5.3,7.3,60,0.00,,,0.00,WUHU216HW,2013-03-07 16:14:00,
2013-03-07 11:20:00,45.3,32.2,30.28,NNW,338,3.1,5.3,60,0.00,,,0.00,WUHU216HW,2013-03-07 16:20:00,
2013-03-07 11:25:00,45.8,31.8,30.27,North,0,2.9,5.1,58,0.00,,,0.00,WUHU216HW,2013-03-07 16:25:00,
2013-03-07 11:30:00,46.2,32.6,30.27,ENE,68,0.0,5.1,59,0.00,,,0.00,WUHU216HW,2013-03-07 16:30:00,
2013-03-07 11:35:00,46.4,32.3,30.27,North,0,3.3,5.3,57,0.00,,,0.00,WUHU216HW,2013-03-07 16:35:00,
2013-03-07 11:40:00,46.5,31.2,30.28,NNW,338,8.0,8.0,56,0.00,,,0.00,WUHU216HW,2013-03-07 16:40:00,
2013-03-07 11:45:00,45.6,31.2,30.28,ESE,113,4.6,8.0,57,0.00,,,0.00,WUHU216HW,2013-03-07 16:45:00,
2013-03-07 11:50:00,46.0,31.5,30.28,ESE,113,0.0,5.1,57,0.00,,,0.00,WUHU216HW,2013-03-07 16:50:00,
2013-03-07 11:55:00,46.0,31.1,30.28,ENE,68,0.0,5.1,56,0.00,,,0.00,WUHU216HW,2013-03-07 16:55:00,
2013-03-07 12:00:00,45.6,30.8,30.28,ENE,68,2.4,8.2,56,0.00,,,0.00,WUHU216HW,2013-03-07 17:00:00,
2013-03-07 12:05:00,45.1,30.3,30.28,NNE,23,0.0,8.2,56,0.00,,,0.00,WUHU216HW,2013-03-07 17:05:00,
2013-03-07 12:10:00,45.6,30.8,30.28,North,0,2.9,4.0,56,0.00,,,0.00,WUHU216HW,2013-03-07 17:10:00,
2013-03-07 12:15:00,45.6,30.8,30.28,NNW,338,2.9,5.5,56,0.00,,,0.00,WUHU216HW,2013-03-07 17:15:00,
2013-03-07 12:21:00,45.3,30.4,30.28,ENE,68,0.0,5.5,56,0.00,,,0.00,WUHU216HW,2013-03-07 17:21:00,
2013-03-07 12:26:00,45.5,30.6,30.28,NNE,23,2.6,5.5,56,0.00,,,0.00,WUHU216HW,2013-03-07 17:26:00,
2013-03-07 12:31:00,45.6,30.8,30.28,North,0,4.9,4.9,56,0.00,,,0.00,WUHU216HW,2013-03-07 17:31:00,
2013-03-07 12:36:00,45.5,30.2,30.28,NNW,338,2.2,4.9,55,0.00,,,0.00,WUHU216HW,2013-03-07 17:36:00,
2013-03-07 12:41:00,45.1,30.3,30.27,NE,45,0.0,4.9,56,0.00,,,0.00,WUHU216HW,2013-03-07 17:41:00,
2013-03-07 12:46:00,45.6,30.6,30.27,ESE,113,0.0,5.3,56,0.00,,,0.00,WUHU216HW,2013-03-07 17:46:00,
2013-03-07 12:51:00,46.4,31.2,30.27,NNW,338,1.5,5.5,56,0.00,,,0.00,WUHU216HW,2013-03-07 17:51:00,
2013-03-07 12:56:00,47.4,32.4,30.27,ENE,68,0.0,5.5,56,0.00,,,0.00,WUHU216HW,2013-03-07 17:56:00,
2013-03-07 13:01:00,48.2,32.2,30.26,SE,135,0.0,6.2,54,0.00,,,0.00,WUHU216HW,2013-03-07 18:01:00,
2013-03-07 13:06:00,48.9,32.9,30.27,ENE,68,0.8,6.2,53,0.00,,,0.00,WUHU216HW,2013-03-07 18:06:00,
2013-03-07 13:11:00,49.2,32.8,30.26,NNE,23,0.2,2.9,53,0.00,,,0.00,WUHU216HW,2013-03-07 18:11:00,
2013-03-07 13:16:00,50.1,33.6,30.26,SE,135,0.0,3.8,53,0.00,,,0.00,WUHU216HW,2013-03-07 18:16:00,
2013-03-07 13:21:00,50.3,33.8,30.26,North,0,4.0,4.0,53,0.00,,,0.00,WUHU216HW,2013-03-07 18:21:00,
2013-03-07 13:27:00,50.7,33.7,30.26,North,0,1.7,4.0,52,0.00,,,0.00,WUHU216HW,2013-03-07 18:27:00,
2013-03-07 13:32:00,50.7,33.2,30.25,ESE,113,0.0,1.7,51,0.00,,,0.00,WUHU216HW,2013-03-07 18:32:00,
2013-03-07 13:37:00,50.9,33.4,30.25,SE,135,2.9,5.3,51,0.00,,,0.00,WUHU216HW,2013-03-07 18:37:00,
2013-03-07 13:42:00,50.7,33.2,30.25,NW,315,3.3,5.3,51,0.00,,,0.00,WUHU216HW,2013-03-07 18:42:00,
2013-03-07 13:47:00,50.7,33.2,30.25,ENE,68,0.0,5.3,51,0.00,,,0.00,WUHU216HW,2013-03-07 18:47:00,
2013-03-07 13:52:00,51.4,33.9,30.24,WNW,293,0.0,3.1,51,0.00,,,0.00,WUHU216HW,2013-03-07 18:52:00,
2013-03-07 13:57:00,51.8,34.0,30.23,NNE,23,0.0,2.9,51,0.00,,,0.00,WUHU216HW,2013-03-07 18:57:00,
2013-03-07 14:02:00,52.3,34.2,30.23,ESE,113,1.1,2.9,50,0.00,,,0.00,WUHU216HW,2013-03-07 19:02:00,
2013-03-07 14:07:00,52.8,34.2,30.23,NNE,23,3.8,3.8,49,0.00,,,0.00,WUHU216HW,2013-03-07 19:07:00,
2013-03-07 14:12:00,52.1,33.5,30.24,ESE,113,2.4,3.8,49,0.00,,,0.00,WUHU216HW,2013-03-07 19:12:00,
2013-03-07 14:17:00,52.3,34.2,30.23,North,0,1.3,3.3,50,0.00,,,0.00,WUHU216HW,2013-03-07 19:17:00,
2013-03-07 14:22:00,52.7,34.0,30.23,East,90,0.0,1.3,49,0.00,,,0.00,WUHU216HW,2013-03-07 19:22:00,
2013-03-07 14:27:00,52.8,33.6,30.23,SE,135,2.9,2.9,48,0.00,,,0.00,WUHU216HW,2013-03-07 19:27:00,
2013-03-07 14:33:00,52.5,32.7,30.23,NW,315,0.0,5.1,47,0.00,,,0.00,WUHU216HW,2013-03-07 19:33:00,
2013-03-07 14:38:00,52.3,33.7,30.23,SE,135,4.4,5.1,49,0.00,,,0.00,WUHU216HW,2013-03-07 19:38:00,
2013-03-07 14:43:00,52.5,33.8,30.23,ESE,113,2.4,4.4,49,0.00,,,0.00,WUHU216HW,2013-03-07 19:43:00,
2013-03-07 14:48:00,52.7,33.4,30.23,NNE,23,5.1,5.1,48,0.00,,,0.00,WUHU216HW,2013-03-07 19:48:00,
2013-03-07 14:53:00,52.8,33.6,30.23,SE,135,0.0,5.1,48,0.00,,,0.00,WUHU216HW,2013-03-07 19:53:00,
2013-03-07 14:58:00,52.8,33.8,30.23,ENE,68,1.1,4.0,48,0.00,,,0.00,WUHU216HW,2013-03-07 19:58:00,
2013-03-07 15:03:00,52.8,33.0,30.23,SE,135,0.0,5.5,47,0.00,,,0.00,WUHU216HW,2013-03-07 20:03:00,
2013-03-07 15:08:00,52.8,33.6,30.23,East,90,2.9,5.5,48,0.00,,,0.00,WUHU216HW,2013-03-07 20:08:00,
2013-03-07 15:13:00,52.8,33.0,30.22,ENE,68,3.8,4.4,47,0.00,,,0.00,WUHU216HW,2013-03-07 20:13:00,
2013-03-07 15:18:00,52.3,32.6,30.22,SE,135,1.5,4.4,47,0.00,,,0.00,WUHU216HW,2013-03-07 20:18:00,
2013-03-07 15:23:00,52.1,33.5,30.22,NE,45,0.0,5.3,49,0.00,,,0.00,WUHU216HW,2013-03-07 20:23:00,
2013-03-07 15:28:00,52.3,33.1,30.22,North,0,2.6,5.3,48,0.00,,,0.00,WUHU216HW,2013-03-07 20:28:00,
2013-03-07 15:33:00,52.5,33.3,30.22,North,0,1.1,4.6,48,0.00,,,0.00,WUHU216HW,2013-03-07 20:33:00,
2013-03-07 15:38:00,52.8,33.6,30.22,NE,45,0.0,6.7,48,0.00,,,0.00,WUHU216HW,2013-03-07 20:38:00,
2013-03-07 15:43:00,52.5,33.3,30.22,ESE,113,2.6,6.7,48,0.00,,,0.00,WUHU216HW,2013-03-07 20:43:00,
2013-03-07 15:49:00,52.3,33.1,30.22,NNE,23,0.0,5.8,48,0.00,,,0.00,WUHU216HW,2013-03-07 20:49:00,
2013-03-07 15:54:00,51.9,32.8,30.22,North,0,0.0,8.0,48,0.00,,,0.00,WUHU216HW,2013-03-07 20:54:00,
2013-03-07 15:59:00,51.9,33.4,30.22,NNE,23,3.8,8.0,49,0.00,,,0.00,WUHU216HW,2013-03-07 20:59:00,
2013-03-07 16:04:00,51.6,32.5,30.22,ENE,68,0.0,6.4,48,0.00,,,0.00,WUHU216HW,2013-03-07 21:04:00,
2013-03-07 16:09:00,51.6,33.0,30.22,NNW,338,2.0,6.4,49,0.00,,,0.00,WUHU216HW,2013-03-07 21:09:00,
2013-03-07 16:14:00,51.6,33.0,30.23,NNW,338,0.0,4.4,49,0.00,,,0.00,WUHU216HW,2013-03-07 21:14:00,
2013-03-07 16:19:00,50.7,32.4,30.23,North,0,5.5,5.5,49,0.00,,,0.00,WUHU216HW,2013-03-07 21:19:00,
2013-03-07 16:24:00,49.8,32.1,30.23,North,0,1.3,5.5,50,0.00,,,0.00,WUHU216HW,2013-03-07 21:24:00,
2013-03-07 16:29:00,49.1,31.9,30.23,North,0,0.0,5.3,51,0.00,,,0.00,WUHU216HW,2013-03-07 21:29:00,
2013-03-07 16:34:00,48.7,31.3,30.23,ENE,68,5.1,6.2,51,0.00,,,0.00,WUHU216HW,2013-03-07 21:34:00,
2013-03-07 16:39:00,48.3,31.4,30.23,WNW,293,0.0,6.2,51,0.00,,,0.00,WUHU216HW,2013-03-07 21:39:00,
2013-03-07 16:44:00,48.0,31.1,30.23,North,0,1.7,3.8,52,0.00,,,0.00,WUHU216HW,2013-03-07 21:44:00,
2013-03-07 16:49:00,47.8,31.4,30.23,North,0,3.5,3.8,53,0.00,,,0.00,WUHU216HW,2013-03-07 21:49:00,
2013-03-07 16:54:00,47.4,31.1,30.23,NNE,23,0.0,4.4,53,0.00,,,0.00,WUHU216HW,2013-03-07 21:54:00,
2013-03-07 16:59:00,47.3,31.4,30.23,North,0,0.0,6.4,54,0.00,,,0.00,WUHU216HW,2013-03-07 21:59:00,
2013-03-07 17:05:00,47.1,31.2,30.22,East,90,0.0,6.4,54,0.00,,,0.00,WUHU216HW,2013-03-07 22:05:00,
2013-03-07 17:10:00,47.1,31.2,30.23,North,0,1.1,4.0,54,0.00,,,0.00,WUHU216HW,2013-03-07 22:10:00,
2013-03-07 17:15:00,46.9,31.5,30.23,NNE,23,0.0,4.9,55,0.00,,,0.00,WUHU216HW,2013-03-07 22:15:00,
2013-03-07 17:20:00,46.9,31.5,30.22,East,90,0.6,4.9,55,0.00,,,0.00,WUHU216HW,2013-03-07 22:20:00,
2013-03-07 17:25:00,46.7,31.3,30.23,NE,45,0.0,3.3,55,0.00,,,0.00,WUHU216HW,2013-03-07 22:25:00,
2013-03-07 17:30:00,46.7,31.3,30.23,NNE,23,0.4,4.4,55,0.00,,,0.00,WUHU216HW,2013-03-07 22:30:00,
2013-03-07 17:35:00,46.5,31.1,30.23,ESE,113,1.3,4.4,55,0.00,,,0.00,WUHU216HW,2013-03-07 22:35:00,
2013-03-07 17:40:00,46.5,31.6,30.23,NNE,23,9.3,9.3,56,0.00,,,0.00,WUHU216HW,2013-03-07 22:40:00,
2013-03-07 17:45:00,46.2,31.2,30.23,ENE,68,0.2,9.3,56,0.00,,,0.00,WUHU216HW,2013-03-07 22:45:00,
2013-03-07 17:50:00,46.2,31.2,30.23,NNW,338,3.8,3.8,56,0.00,,,0.00,WUHU216HW,2013-03-07 22:50:00,
2013-03-07 17:55:00,45.8,30.9,30.23,NE,45,1.1,4.4,56,0.00,,,0.00,WUHU216HW,2013-03-07 22:55:00,
2013-03-07 18:00:00,45.6,30.8,30.23,East,90,0.0,4.4,56,0.00,,,0.00,WUHU216HW,2013-03-07 23:00:00,
2013-03-07 18:05:00,45.5,31.1,30.23,NNE,23,0.0,2.2,57,0.00,,,0.00,WUHU216HW,2013-03-07 23:05:00,
2013-03-07 18:10:00,45.3,30.9,30.23,North,0,1.5,6.2,57,0.00,,,0.00,WUHU216HW,2013-03-07 23:10:00,
2013-03-07 18:15:00,44.9,31.0,30.23,NE,45,0.0,6.2,58,0.00,,,0.00,WUHU216HW,2013-03-07 23:15:00,
2013-03-07 18:21:00,44.6,30.7,30.24,NNE,23,0.0,4.0,58,0.00,,,0.00,WUHU216HW,2013-03-07 23:21:00,
2013-03-07 18:26:00,44.4,30.5,30.24,NE,45,1.7,1.7,58,0.00,,,0.00,WUHU216HW,2013-03-07 23:26:00,
2013-03-07 18:31:00,44.0,30.4,30.24,NNE,23,1.3,4.9,59,0.00,,,0.00,WUHU216HW,2013-03-07 23:31:00,
2013-03-07 18:36:00,43.7,30.2,30.25,NNE,23,0.0,4.9,59,0.00,,,0.00,WUHU216HW,2013-03-07 23:36:00,
2013-03-07 18:41:00,43.3,29.9,30.25,NNE,23,0.6,2.4,59,0.00,,,0.00,WUHU216HW,2013-03-07 23:41:00,
2013-03-07 18:46:00,43.1,30.2,30.25,ENE,68,0.0,1.3,60,0.00,,,0.00,WUHU216HW,2013-03-07 23:46:00,
2013-03-07 18:51:00,42.6,29.6,30.25,North,0,1.5,1.7,60,0.00,,,0.00,WUHU216HW,2013-03-07 23:51:00,
2013-03-07 18:56:00,42.4,30.0,30.25,NE,45,0.0,4.6,61,0.00,,,0.00,WUHU216HW,2013-03-07 23:56:00,
2013-03-07 19:01:00,42.2,30.1,30.26,North,0,1.7,4.6,62,0.00,,,0.00,WUHU216HW,2013-03-08 00:01:00,
2013-03-07 19:06:00,42.0,29.9,30.26,North,0,1.7,2.0,62,0.00,,,0.00,WUHU216HW,2013-03-08 00:06:00,
2013-03-07 19:11:00,41.7,29.6,30.26,NE,45,1.5,1.7,62,0.00,,,0.00,WUHU216HW,2013-03-08 00:11:00,
2013-03-07 19:16:00,41.5,29.8,30.26,NNE,23,0.0,3.3,63,0.00,,,0.00,WUHU216HW,2013-03-08 00:16:00,
2013-03-07 19:21:00,41.3,29.6,30.26,NE,45,0.4,3.3,63,0.00,,,0.00,WUHU216HW,2013-03-08 00:21:00,
2013-03-07 19:26:00,41.1,29.5,30.26,North,0,1.5,3.3,63,0.00,,,0.00,WUHU216HW,2013-03-08 00:26:00,
2013-03-07 19:31:00,40.8,29.5,30.26,NNW,338,3.5,3.5,64,0.00,,,0.00,WUHU216HW,2013-03-08 00:31:00,
2013-03-07 19:37:00,40.8,29.5,30.26,NE,45,0.0,3.5,64,0.00,,,0.00,WUHU216HW,2013-03-08 00:37:00,
2013-03-07 19:42:00,40.6,29.3,30.26,NE,45,0.0,2.4,64,0.00,,,0.00,WUHU216HW,2013-03-08 00:42:00,
2013-03-07 19:47:00,40.4,29.1,30.26,NNE,23,1.1,2.4,64,0.00,,,0.00,WUHU216HW,2013-03-08 00:47:00,
2013-03-07 19:52:00,40.2,29.3,30.27,NNE,23,1.7,2.0,65,0.00,,,0.00,WUHU216HW,2013-03-08 00:52:00,
2013-03-07 19:57:00,39.9,29.0,30.27,NNE,23,7.1,7.1,65,0.00,,,0.00,WUHU216HW,2013-03-08 00:57:00,
2013-03-07 20:02:00,39.9,29.4,30.27,NE,45,0.0,7.1,66,0.00,,,0.00,WUHU216HW,2013-03-08 01:02:00,
2013-03-07 20:07:00,39.5,29.2,30.27,NE,45,0.0,6.0,66,0.00,,,0.00,WUHU216HW,2013-03-08 01:07:00,
2013-03-07 20:12:00,39.3,28.8,30.28,NNE,23,3.5,6.0,66,0.00,,,0.00,WUHU216HW,2013-03-08 01:12:00,
2013-03-07 20:17:00,39.3,28.8,30.27,NNE,23,2.2,5.3,66,0.00,,,0.00,WUHU216HW,2013-03-08 01:17:00,
2013-03-07 20:22:00,39.0,28.9,30.27,NNW,338,2.6,4.9,67,0.00,,,0.00,WUHU216HW,2013-03-08 01:22:00,
2013-03-07 20:27:00,38.8,28.7,30.28,NNW,338,0.0,2.6,67,0.00,,,0.00,WUHU216HW,2013-03-08 01:27:00,
2013-03-07 20:32:00,38.4,28.4,30.28,NNE,23,0.0,2.6,67,0.00,,,0.00,WUHU216HW,2013-03-08 01:32:00,
2013-03-07 20:37:00,38.4,28.4,30.28,NE,45,1.3,2.6,67,0.00,,,0.00,WUHU216HW,2013-03-08 01:37:00,
2013-03-07 20:42:00,38.1,28.4,30.28,NE,45,0.0,2.9,68,0.00,,,0.00,WUHU216HW,2013-03-08 01:42:00,
2013-03-07 20:47:00,37.9,28.3,30.28,North,0,2.9,2.9,68,0.00,,,0.00,WUHU216HW,2013-03-08 01:47:00,
2013-03-07 20:52:00,37.9,28.3,30.28,NNE,23,5.5,5.5,69,0.00,,,0.00,WUHU216HW,2013-03-08 01:52:00,
2013-03-07 20:57:00,37.7,28.5,30.28,NNW,338,3.5,5.5,69,0.00,,,0.00,WUHU216HW,2013-03-08 01:57:00,
2013-03-07 21:02:00,37.7,28.5,30.28,NNW,338,2.2,3.5,69,0.00,,,0.00,WUHU216HW,2013-03-08 02:02:00,
2013-03-07 21:07:00,37.5,28.3,30.29,NE,45,0.0,5.1,69,0.00,,,0.00,WUHU216HW,2013-03-08 02:07:00,
2013-03-07 21:12:00,37.4,28.2,30.28,NNE,23,2.0,5.1,69,0.00,,,0.00,WUHU216HW,2013-03-08 02:12:00,
2013-03-07 21:18:00,37.2,28.0,30.28,NNE,23,0.0,4.6,69,0.00,,,0.00,WUHU216HW,2013-03-08 02:18:00,
2013-03-07 21:23:00,37.2,28.0,30.29,NE,45,0.0,6.9,69,0.00,,,0.00,WUHU216HW,2013-03-08 02:23:00,
2013-03-07 21:28:00,36.8,28.0,30.29,NNE,23,1.5,6.9,69,0.00,,,0.00,WUHU216HW,2013-03-08 02:28:00,
2013-03-07 21:33:00,36.6,27.8,30.29,North,0,1.3,2.0,70,0.00,,,0.00,WUHU216HW,2013-03-08 02:33:00,
2013-03-07 21:38:00,36.3,27.5,30.29,ENE,68,0.0,2.0,70,0.00,,,0.00,WUHU216HW,2013-03-08 02:38:00,
2013-03-07 21:43:00,36.3,27.5,30.29,ESE,113,1.5,3.5,70,0.00,,,0.00,WUHU216HW,2013-03-08 02:43:00,
2013-03-07 21:48:00,36.1,27.3,30.28,NE,45,0.0,3.5,70,0.00,,,0.00,WUHU216HW,2013-03-08 02:48:00,
2013-03-07 21:53:00,35.9,27.4,30.28,ESE,113,0.0,1.5,71,0.00,,,0.00,WUHU216HW,2013-03-08 02:53:00,
2013-03-07 21:58:00,35.9,27.4,30.28,North,0,0.0,1.5,71,0.00,,,0.00,WUHU216HW,2013-03-08 02:58:00,
2013-03-07 22:03:00,35.7,27.2,30.29,NNE,23,0.0,1.3,71,0.00,,,0.00,WUHU216HW,2013-03-08 03:03:00,
2013-03-07 22:08:00,35.4,26.9,30.28,NNE,23,1.3,3.1,71,0.00,,,0.00,WUHU216HW,2013-03-08 03:08:00,
2013-03-07 22:13:00,35.4,27.2,30.28,East,90,1.7,3.5,72,0.00,,,0.00,WUHU216HW,2013-03-08 03:13:00,
2013-03-07 22:18:00,35.4,27.2,30.28,East,90,0.0,4.4,72,0.00,,,0.00,WUHU216HW,2013-03-08 03:18:00,
2013-03-07 22:23:00,35.4,27.2,30.28,NE,45,0.0,4.4,72,0.00,,,0.00,WUHU216HW,2013-03-08 03:23:00,
2013-03-07 22:28:00,35.2,27.0,30.29,NNE,23,2.4,2.4,72,0.00,,,0.00,WUHU216HW,2013-03-08 03:28:00,
2013-03-07 22:33:00,34.8,26.8,30.28,NW,315,5.5,5.5,72,0.00,,,0.00,WUHU216HW,2013-03-08 03:33:00,
2013-03-07 22:38:00,34.8,26.7,30.28,North,0,0.0,5.5,72,0.00,,,0.00,WUHU216HW,2013-03-08 03:38:00,
2013-03-07 22:43:00,34.8,26.7,30.28,North,0,0.0,6.0,72,0.00,,,0.00,WUHU216HW,2013-03-08 03:43:00,
2013-03-07 22:48:00,34.8,27.0,30.28,NNE,23,2.0,6.0,72,0.00,,,0.00,WUHU216HW,2013-03-08 03:48:00,
2013-03-07 22:53:00,34.7,26.8,30.28,North,0,1.7,3.3,73,0.00,,,0.00,WUHU216HW,2013-03-08 03:53:00,
2013-03-07 22:58:00,34.5,26.6,30.28,North,0,0.0,2.9,73,0.00,,,0.00,WUHU216HW,2013-03-08 03:58:00,
2013-03-07 23:04:00,34.3,26.4,30.28,ESE,113,0.0,2.9,73,0.00,,,0.00,WUHU216HW,2013-03-08 04:04:00,
2013-03-07 23:09:00,34.3,26.4,30.28,NE,45,4.0,4.0,73,0.00,,,0.00,WUHU216HW,2013-03-08 04:09:00,
2013-03-07 23:14:00,34.3,26.4,30.28,NNW,338,4.0,4.0,73,0.00,,,0.00,WUHU216HW,2013-03-08 04:14:00,
2013-03-07 23:19:00,34.3,26.4,30.28,North,0,1.3,4.0,73,0.00,,,0.00,WUHU216HW,2013-03-08 04:19:00,
2013-03-07 23:24:00,34.1,26.6,30.28,NNE,23,1.5,2.0,74,0.00,,,0.00,WUHU216HW,2013-03-08 04:24:00,
2013-03-07 23:29:00,33.9,26.4,30.28,NE,45,0.0,1.5,74,0.00,,,0.00,WUHU216HW,2013-03-08 04:29:00,
2013-03-07 23:34:00,33.8,26.2,30.28,NNE,23,2.2,4.0,74,0.00,,,0.00,WUHU216HW,2013-03-08 04:34:00,
2013-03-07 23:39:00,33.6,26.4,30.28,NNE,23,0.0,4.0,75,0.00,,,0.00,WUHU216HW,2013-03-08 04:39:00,
2013-03-07 23:44:00,33.6,26.4,30.28,NE,45,0.0,2.6,75,0.00,,,0.00,WUHU216HW,2013-03-08 04:44:00,
2013-03-07 23:49:00,33.6,26.4,30.28,ENE,68,1.1,2.6,75,0.00,,,0.00,WUHU216HW,2013-03-08 04:49:00,
2013-03-07 23:54:00,33.6,26.4,30.28,NNE,23,2.2,3.8,75,0.00,,,0.00,WUHU216HW,2013-03-08 04:54:00,
2013-03-07 23:59:00,33.4,26.2,30.28,North,0,0.0,3.8,75,0.00,,,0.00,WUHU216HW,2013-03-08 04:59:00,